Change the Weather History Date:

Tuesday, August 19, 2014

  Actual Average Record
Temperature  
Mean Temperature 60 °F 55 °F  
Max Temperature 67 °F 63 °F 79 °F (1973)
Min Temperature 53 °F 47 °F 33 °F (1969)
Degree Days  
Heating Degree Days 5 10  
Month to date heating degree days 99 185  
Since 1 June heating degree days 768 882  
Since 1 July heating degree days 337 475  
Cooling Degree Days 0    
Month to date cooling degree days 0  
Year to date cooling degree days 0  
Since 1 June cooling degree days 0  
Growing Degree Days 10 (Base 50)    
Moisture  
Dew Point 54 °F    
Average Humidity 0    
Maximum Humidity 0    
Minimum Humidity 0    
Precipitation  
Precipitation T in 0.09 in 1.37 in (2011)
Month to date precipitation 2.35 1.75  
Year to date precipitation 13.11 10.40  
Snow  
Snow 0.00 in 0.00 in 0.00 in (2014)
Month to date snowfall 0.0 0.0  
Since 1 June snowfall 0.0 0.0  
Since 1 July snowfall 0.0 0.0  
Snow Depth 0.00 in    
Sea Level Pressure  
Sea Level Pressure 30.00 in    
Wind  
Wind Speed 8 mph (SSE)    
Max Wind Speed 10 mph    
Max Gust Speed 13 mph    
Visibility 8 miles    
Events Rain    
T = Trace of Precipitation, MM = Missing Value Source: NWS Daily Summary

Daily Weather History Graph

Daily Weather History Graph

Search for Another Location

Airport or City:

Trip Planner

Search our weather history database for the weather conditions in past years. The results will help you decide how hot, cold, wet, or windy it might be!

Date:

Astronomy

Aug. 19, 2014 Rise Set
Actual Time 6:56 AM AKDT 10:02 PM AKDT
Civil Twilight 6:09 AM AKDT 10:48 PM AKDT
Nautical Twilight 5:05 AM AKDT 11:52 PM AKDT
Astronomical Twilight 3:15 AM AKDT 1:34 AM AKDT
Moon 1:32 AM AKDT 6:34 PM AKDT
Length of Visible Light 16h 39m
Length of Day
15h 05m
Waning Crescent, 28% of the Moon is Illuminated
Aug 19
Waning Crescent
Aug 25
New
Sep 2
First Quarter
Sep 8
Full
Sep 15
Last Quarter

Hourly Weather History & Observations

Time (AKDT) Temp. Dew Point Humidity Pressure Visibility Wind Dir Wind Speed Gust Speed Precip Events Conditions
12:54 AM 55.9 °F 54.0 °F 93% 30.02 in 10.0 mi South 8.1 mph - N/A   Mostly Cloudy
1:30 AM 55.4 °F 53.6 °F 94% 30.02 in 10.0 mi South 9.2 mph - N/A   Overcast
1:54 AM 55.0 °F 54.0 °F 96% 30.02 in 10.0 mi South 8.1 mph - N/A   Overcast
2:33 AM 55.4 °F 53.6 °F 94% 30.02 in 10.0 mi SSE 6.9 mph - N/A   Overcast
2:54 AM 55.0 °F 54.0 °F 96% 30.02 in 10.0 mi SSE 6.9 mph - N/A   Overcast
3:54 AM 54.0 °F 54.0 °F 100% 30.01 in 7.0 mi SSE 8.1 mph - N/A   Overcast
4:54 AM 54.0 °F 54.0 °F 100% 30.01 in 4.0 mi SSE 8.1 mph - N/A   Overcast
5:26 AM 53.6 °F 53.6 °F 100% 30.00 in 2.0 mi SE 8.1 mph - N/A   Overcast
5:33 AM 53.6 °F 53.6 °F 100% 30.00 in 1.2 mi SE 9.2 mph - N/A   Overcast
5:54 AM 54.0 °F 54.0 °F 100% 30.00 in 1.0 mi SSE 10.4 mph - N/A   Mist
6:54 AM 53.1 °F 53.1 °F 100% 30.00 in 1.0 mi South 6.9 mph - N/A   Mist
7:06 AM 53.6 °F 53.6 °F 100% 30.00 in 0.8 mi SSE 6.9 mph - N/A   Mist
7:16 AM 53.6 °F 53.6 °F 100% 30.00 in 1.2 mi SSE 8.1 mph - N/A   Overcast
7:43 AM 53.6 °F 53.6 °F 100% 30.00 in 0.8 mi SSE 9.2 mph - N/A   Overcast
7:54 AM 54.0 °F 54.0 °F 100% 30.00 in 1.2 mi SSE 6.9 mph - N/A   Overcast
8:49 AM 53.6 °F 53.6 °F 100% 30.00 in 2.0 mi SSE 8.1 mph - N/A   Overcast
8:54 AM 54.0 °F 54.0 °F 100% 30.00 in 2.0 mi South 6.9 mph - N/A   Overcast
9:00 AM 53.6 °F 53.6 °F 100% 30.00 in 8.0 mi SSE 6.9 mph - N/A   Overcast
9:54 AM 55.0 °F 55.0 °F 100% 30.00 in 10.0 mi ESE 5.8 mph - N/A   Overcast
10:54 AM 55.9 °F 55.0 °F 97% 30.00 in 10.0 mi Variable 3.5 mph - N/A   Overcast
11:54 AM 57.9 °F 55.0 °F 90% 30.01 in 10.0 mi Calm Calm - N/A   Overcast
12:01 PM 57.2 °F 55.4 °F 94% 30.01 in 10.0 mi ENE 3.5 mph - N/A   Overcast
12:30 PM 60.8 °F 53.6 °F 77% 30.01 in 10.0 mi East 4.6 mph - N/A   Overcast
12:54 PM 61.0 °F 54.0 °F 78% 30.01 in 10.0 mi Calm Calm - N/A   Overcast
1:54 PM 63.0 °F 53.1 °F 70% 30.00 in 10.0 mi Calm Calm - N/A   Overcast
2:54 PM 64.0 °F 54.0 °F 70% 30.00 in 10.0 mi Calm Calm - N/A   Overcast
3:01 PM 64.4 °F 53.6 °F 68% 30.00 in 10.0 mi ESE 3.5 mph - N/A   Mostly Cloudy
3:07 PM 64.4 °F 53.6 °F 68% 30.00 in 10.0 mi Calm Calm - N/A   Overcast
3:38 PM 64.4 °F 53.6 °F 68% 29.99 in 10.0 mi Calm Calm - N/A   Overcast
3:54 PM 66.9 °F 54.0 °F 63% 29.99 in 10.0 mi Calm Calm - N/A   Mostly Cloudy
4:54 PM 64.0 °F 55.0 °F 73% 29.99 in 10.0 mi North 3.5 mph - N/A   Mostly Cloudy
5:54 PM 60.1 °F 57.0 °F 90% 29.98 in 9.0 mi NE 5.8 mph - 0.01 in Rain Light Rain
7:54 PM 61.0 °F 53.1 °F 75% 29.99 in 10.0 mi WNW 5.8 mph - N/A   Mostly Cloudy
8:54 PM 59.0 °F 55.0 °F 87% 29.99 in 10.0 mi Calm Calm - N/A   Mostly Cloudy
9:54 PM 57.9 °F 55.0 °F 90% 30.00 in 10.0 mi WSW 5.8 mph - N/A   Mostly Cloudy
10:54 PM 57.9 °F 55.0 °F 90% 30.01 in 10.0 mi WSW 5.8 mph - N/A   Scattered Clouds
11:54 PM 57.0 °F 55.9 °F 96% 30.02 in 10.0 mi WSW 4.6 mph - N/A   Mostly Cloudy